Location: Pittman
(37.9557°N, 80.9209°W)
Time: 03:48:15
(UTC+00:00)

ACS3 Solar Sail - Visible Passes

Search period start: 15 April 2026 00:00
Search period end: 25 April 2026 00:00
Orbit: 871 x 977 km, 97.2° (Epoch: 14 April)

Date Brightness Start Highest point End Pass type
(mag) Time Alt. Az. Time Alt. Az. Time Alt. Az.
15 Apr 4.2 05:20:08 10° NE 05:21:00 13° NE 05:21:00 13° NE visible
15 Apr 3.0 07:01:05 10° N 07:04:34 35° N 07:04:34 35° N visible
16 Apr 4.0 05:29:24 10° NE 05:30:58 16° NE 05:30:58 16° NE visible
16 Apr 3.0 07:10:56 10° N 07:14:33 34° NNW 07:14:33 34° NNW visible
17 Apr 3.8 05:38:47 10° NE 05:40:57 19° NE 05:40:57 19° NE visible
17 Apr 3.0 07:20:49 10° N 07:24:31 32° NNW 07:24:31 32° NNW visible
18 Apr 3.6 05:48:16 10° NNE 05:50:54 23° NE 05:50:54 23° NE visible
18 Apr 3.1 07:30:45 10° N 07:34:28 29° NW 07:34:28 29° NW visible
19 Apr 3.4 05:57:49 10° NNE 06:00:51 28° NE 06:00:51 28° NE visible
19 Apr 3.2 07:40:43 10° NNW 07:44:25 25° NW 07:44:25 25° NW visible
20 Apr 3.2 06:07:25 10° NNE 06:10:48 33° NE 06:10:48 33° NE visible
20 Apr 3.3 07:50:45 10° NNW 07:54:22 22° NW 07:54:22 22° NW visible
21 Apr 3.0 06:17:03 10° NNE 06:20:45 38° NNE 06:20:45 38° NNE visible
21 Apr 3.5 08:00:53 10° NNW 08:04:19 18° WNW 08:04:19 18° WNW visible
22 Apr 2.8 06:26:44 10° NNE 06:30:41 43° NNE 06:30:41 43° NNE visible
22 Apr 3.6 08:11:09 10° NNW 08:14:14 15° WNW 08:14:14 15° WNW visible
23 Apr 4.3 04:56:55 10° ENE 04:57:02 10° ENE 04:57:02 10° ENE visible
23 Apr 2.6 06:36:26 10° N 06:40:36 46° N 06:40:36 46° N visible
23 Apr 3.8 08:21:43 10° NW 08:24:01 12° WNW 08:24:10 12° WNW visible
24 Apr 4.1 05:05:42 10° NE 05:06:57 13° ENE 05:06:57 13° ENE visible
24 Apr 2.5 06:46:10 10° N 06:50:31 47° N 06:50:31 47° N visible
